FW5145 Weather Reports


time (UTC)temp
F
wind
direction
speed
knots
gust
knots
rain 1hr
in
rain 24hr
in
rain mn
in
humidity
%
barometer
mb
20260507225033 45 0 0.0 0.0 0.00 0.00 0.00 100 1016.9
20260507224542 45 0 0.0 0.0 0.00 0.00 0.00 100 1016.9
20260507224032 45 0 0.0 0.0 0.00 0.00 0.00 100 1017.0
20260507223533 45 0 0.0 0.0 0.00 0.00 0.00 100 1017.1
20260507223040 46 0 0.0 0.0 0.00 0.00 0.00 100 1017.3
20260507222533 46 0 0.0 0.0 0.00 0.00 0.00 100 1017.3
20260507222032 46 0 0.0 0.0 0.00 0.00 0.00 100 1017.2
20260507221535 46 0 0.0 0.0 0.00 0.00 0.00 100 1017.4
20260507221036 46 0 0.0 0.0 0.00 0.00 0.00 100 1017.2
20260507220532 47 0 0.0 0.0 0.00 0.00 0.00 100 1017.3
20260507220044 47 0 0.0 0.0 0.00 0.00 0.00 100 1017.3
20260507215533 47 0 0.0 0.0 0.00 0.00 0.00 100 1017.2
20260507215033 47 0 0.0 0.0 0.00 0.00 0.00 100 1017.3
20260507214546 47 0 0.0 0.0 0.00 0.00 0.00 100 1017.2
20260507214032 47 0 0.0 0.9 0.00 0.00 0.00 100 1017.3
20260507213531 47 0 0.0 0.9 0.00 0.00 0.00 100 1017.1
20260507213050 47 0 0.0 0.9 0.00 0.00 0.00 100 1017.2
20260507212532 47 0 0.0 0.0 0.00 0.00 0.00 100 1017.2
20260507212036 47 0 0.0 0.0 0.00 0.00 0.00 100 1017.1
20260507211548 47 0 0.0 0.0 0.00 0.00 0.00 100 1017.1
20260507211034 47 0 0.0 0.0 0.00 0.00 0.00 100 1017.1
20260507210534 47 0 0.0 0.0 0.00 0.00 0.00 100 1017.2
20260507210045 47 0 0.0 0.0 0.00 0.00 0.00 100 1017.2
20260507205532 48 0 0.0 0.0 0.00 0.00 0.00 100 1017.2
20260507205034 48 0 0.0 0.0 0.00 0.00 0.00 100 1017.1
20260507204545 48 0 0.0 0.0 0.00 0.00 0.00 100 1017.1
20260507204033 48 0 0.0 0.0 0.00 0.00 0.00 100 1017.1
20260507203533 48 0 0.0 0.0 0.00 0.00 0.00 100 1017.0
20260507203043 49 0 0.0 0.0 0.00 0.00 0.00 100 1016.8
20260507202532 49 0 0.0 0.0 0.00 0.00 0.00 100 1016.9
20260507202033 49 0 0.0 0.0 0.00 0.00 0.00 100 1017.0
20260507201550 49 0 0.0 0.0 0.00 0.00 0.00 100 1016.9
20260507201032 50 0 0.0 0.0 0.00 0.00 0.00 100 1016.8
20260507200532 50 0 0.0 0.0 0.00 0.00 0.00 100 1016.7
20260507200043 50 0 0.0 0.0 0.00 0.00 0.00 100 1016.7
20260507195532 50 0 0.0 0.0 0.00 0.00 0.00 100 1016.6
20260507195033 50 0 0.0 0.0 0.00 0.00 0.00 100 1016.5
20260507194547 51 0 0.0 0.0 0.00 0.00 0.00 100 1016.5
20260507194032 51 0 0.0 0.9 0.00 0.00 0.00 100 1016.5
20260507193533 51 0 0.0 0.9 0.00 0.00 0.00 100 1016.4
20260507193045 51 0 0.0 0.0 0.00 0.00 0.00 100 1016.5
20260507192532 51 0 0.0 0.9 0.00 0.00 0.00 100 1016.3
20260507192032 51 0 0.0 0.9 0.00 0.00 0.00 100 1016.3
20260507191558 52 0 0.0 0.9 0.00 0.00 0.00 100 1016.3
20260507191032 52 0 0.0 0.9 0.00 0.00 0.00 100 1016.4
20260507190532 52 0 0.0 1.7 0.00 0.00 0.00 100 1016.3
20260507190043 52 0 0.0 1.7 0.00 0.00 0.00 100 1016.3
20260507185534 53 0 0.0 1.7 0.00 0.00 0.00 100 1016.3
20260507185033 53 0 0.0 1.7 0.00 0.00 0.00 100 1016.3
20260507184541 53 0 0.0 1.7 0.00 0.00 0.00 100 1016.4
20260507184031 53 0 0.0 1.7 0.00 0.00 0.00 100 1016.3
20260507183534 53 0 0.0 1.7 0.00 0.00 0.00 100 1016.4
20260507183051 53 0 0.0 1.7 0.00 0.00 0.00 100 1016.2
20260507182533 54 0 0.0 4.3 0.00 0.00 0.00 100 1016.2
20260507182032 54 0 0.0 4.3 0.00 0.00 0.00 100 1016.2
20260507181543 54 31 0.0 1.7 0.00 0.00 0.00 100 1016.2
20260507181033 54 0 0.0 1.7 0.00 0.00 0.00 100 1016.1
20260507180535 54 0 0.0 1.7 0.00 0.00 0.00 100 1016.1
20260507180050 55 21 0.0 1.7 0.00 0.00 0.00 100 1016.1
20260507175532 55 12 0.0 0.9 0.00 0.00 0.00 100 1016.1
20260507175032 55 0 0.0 1.7 0.00 0.00 0.00 100 1016.0
20260507174542 55 0 0.0 1.7 0.00 0.00 0.00 100 1016.0
20260507174034 55 0 0.0 1.7 0.00 0.00 0.00 100 1015.9
20260507173536 55 0 0.0 1.7 0.00 0.00 0.00 100 1015.9
20260507173054 55 0 0.0 1.7 0.00 0.00 0.00 100 1015.9
20260507172532 56 34 0.0 2.6 0.00 0.00 0.00 100 1015.8
20260507172032 56 0 0.0 2.6 0.00 0.00 0.00 100 1015.9
20260507171549 56 0 0.0 2.6 0.00 0.00 0.00 100 1015.9
20260507171034 57 37 0.0 2.6 0.00 0.00 0.00 100 1015.9
20260507170537 57 0 0.0 1.7 0.00 0.00 0.00 100 1015.9
20260507170051 57 0 0.0 2.6 0.00 0.00 0.00 100 1015.8
20260507165536 57 0 0.9 2.6 0.00 0.00 0.00 100 1015.7
20260507165039 58 0 0.0 2.6 0.00 0.00 0.00 100 1015.7
20260507164542 58 0 0.0 2.6 0.00 0.00 0.00 100 1015.8
20260507164033 58 0 0.0 0.9 0.00 0.00 0.00 100 1015.7
20260507163533 58 0 0.0 2.6 0.00 0.00 0.00 100 1015.7
20260507163043 58 0 0.0 3.5 0.00 0.00 0.00 100 1015.8
20260507162534 58 43 0.9 3.5 0.00 0.00 0.00 100 1015.8
20260507162033 57 262 0.0 1.7 0.00 0.00 0.00 100 1015.8
20260507161550 57 0 0.0 2.6 0.00 0.00 0.00 100 1015.9
20260507161032 57 0 0.0 2.6 0.00 0.00 0.00 100 1015.9
20260507160536 56 0 0.0 2.6 0.00 0.00 0.00 100 1015.9
20260507160044 56 0 0.0 1.7 0.00 0.00 0.00 100 1016.1
20260507155532 56 352 0.0 0.9 0.00 0.00 0.00 100 1016.1
20260507155035 56 0 0.0 0.9 0.00 0.00 0.00 100 1016.2
20260507154546 55 0 0.0 1.7 0.00 0.00 0.00 100 1016.2
20260507154036 55 0 0.0 1.7 0.00 0.00 0.00 100 1016.2
20260507153535 55 0 0.0 1.7 0.00 0.00 0.00 100 1016.2
20260507153045 55 337 0.0 1.7 0.00 0.00 0.00 100 1016.1
20260507152535 55 336 0.0 1.7 0.00 0.00 0.00 100 1016.1
20260507152036 55 0 0.0 0.9 0.00 0.00 0.00 100 1016.1
20260507151542 55 0 0.0 0.9 0.00 0.00 0.00 100 1016.1
20260507151035 55 0 0.0 0.0 0.00 0.00 0.00 100 1016.2
20260507150535 54 0 0.0 0.0 0.00 0.00 0.00 100 1016.2
20260507150053 54 0 0.0 0.0 0.00 0.00 0.00 100 1016.2
20260507145535 54 0 0.0 1.7 0.00 0.00 0.00 100 1016.3
20260507145033 54 0 0.0 1.7 0.00 0.00 0.00 100 1016.2
20260507144546 54 0 0.0 1.7 0.00 0.00 0.00 100 1016.2
20260507144036 54 0 0.0 2.6 0.00 0.00 0.00 100 1016.1
20260507143535 54 287 0.9 2.6 0.00 0.00 0.00 100 1016.2
20260507143056 54 0 0.0 0.0 0.00 0.00 0.00 100 1016.2
20260507142535 54 0 0.0 0.0 0.00 0.00 0.00 100 1016.2
20260507142033 54 0 0.0 1.7 0.00 0.00 0.00 100 1016.3
20260507141542 54 0 0.0 1.7 0.00 0.00 0.00 100 1016.3
20260507141036 55 0 0.0 1.7 0.00 0.00 0.00 100 1016.3
20260507140538 55 28 0.0 0.9 0.00 0.00 0.00 100 1016.5
20260507140039 55 0 0.0 1.7 0.00 0.00 0.00 100 1016.4
20260507135532 55 0 0.0 1.7 0.00 0.00 0.00 100 1016.4
20260507135034 55 0 0.0 1.7 0.00 0.00 0.00 100 1016.5
20260507134537 55 0 0.0 1.7 0.00 0.00 0.00 100 1016.5
20260507134030 55 0 0.0 1.7 0.00 0.00 0.00 100 1016.4
20260507133533 55 0 0.0 2.6 0.00 0.00 0.00 100 1016.5
20260507133047 55 0 0.0 2.6 0.00 0.00 0.00 100 1016.4
20260507132532 55 0 0.0 1.7 0.00 0.00 0.00 100 1016.4
20260507132033 55 33 0.0 2.6 0.00 0.00 0.00 100 1016.5
20260507131548 55 0 0.0 2.6 0.00 0.00 0.00 100 1016.5
20260507131033 55 26 0.0 2.6 0.00 0.00 0.00 100 1016.4
20260507130531 55 0 0.0 0.0 0.00 0.00 0.00 100 1016.5
20260507130058 55 0 0.0 0.0 0.00 0.00 0.00 100 1016.4
20260507125531 55 0 0.0 0.0 0.00 0.00 0.00 100 1016.5
20260507125032 55 0 0.0 0.0 0.00 0.00 0.00 100 1016.4
20260507124541 55 0 0.0 0.0 0.00 0.00 0.00 100 1016.4
20260507124031 55 0 0.0 0.9 0.00 0.00 0.00 100 1016.5
20260507123531 54 0 0.0 0.9 0.00 0.00 0.00 100 1016.5
20260507123035 54 0 0.0 0.9 0.00 0.00 0.00 100 1016.6
20260507122532 54 0 0.0 0.9 0.00 0.00 0.00 100 1016.6
20260507122032 54 24 0.0 2.6 0.00 0.00 0.00 100 1016.5
20260507121544 54 0 0.0 2.6 0.00 0.00 0.00 100 1016.6
20260507121032 54 54 0.0 2.6 0.00 0.00 0.00 100 1016.6
20260507120531 54 76 0.0 1.7 0.00 0.00 0.00 100 1016.7
20260507120042 54 76 0.0 1.7 0.00 0.00 0.00 100 1016.7
20260507115532 54 76 0.0 2.6 0.00 0.00 0.00 100 1016.6
20260507115032 54 0 0.0 2.6 0.00 0.00 0.00 100 1016.7
20260507114540 54 26 0.0 2.6 0.00 0.00 0.00 100 1016.6
20260507114035 54 0 0.0 2.6 0.00 0.00 0.00 100 1016.6
20260507113535 54 44 0.0 2.6 0.00 0.00 0.00 100 1016.6
20260507113049 54 39 0.0 2.6 0.00 0.00 0.00 100 1016.6
20260507112535 54 24 0.0 1.7 0.00 0.00 0.00 100 1016.7
20260507112032 54 0 0.0 2.6 0.00 0.00 0.00 100 1016.6
20260507111544 54 0 0.0 2.6 0.00 0.00 0.00 100 1016.6
20260507111031 54 29 0.9 2.6 0.00 0.00 0.00 100 1016.8
20260507110530 54 67 0.0 1.7 0.00 0.00 0.00 100 1016.8
20260507110055 55 56 0.0 1.7 0.00 0.00 0.00 100 1016.8
20260507105532 55 0 0.0 2.6 0.00 0.00 0.00 100 1016.8
20260507105031 55 0 0.0 2.6 0.00 0.00 0.00 100 1016.8
20260507104549 54 28 0.0 2.6 0.00 0.00 0.00 100 1016.9
20260507104031 54 31 0.9 2.6 0.00 0.00 0.00 100 1017.0
20260507103534 54 0 0.0 3.5 0.00 0.00 0.00 100 1017.0
20260507103115 54 360 0.9 3.5 0.00 0.00 0.00 100 1017.1
20260507102533 53 0 0.0 0.9 0.00 0.00 0.00 100 1017.1
20260507102035 53 0 0.0 1.7 0.00 0.00 0.00 100 1017.2
20260507101547 53 19 0.0 2.6 0.00 0.00 0.00 100 1017.1
20260507101034 53 24 0.0 2.6 0.00 0.00 0.00 100 1017.2
20260507100532 53 0 0.0 0.0 0.00 0.00 0.00 100 1017.1
20260507100103 53 0 0.0 0.0 0.00 0.00 0.00 100 1017.1
20260507095536 52 0 0.0 0.0 0.00 0.00 0.00 100 1016.9
20260507095034 52 0 0.0 0.0 0.00 0.00 0.00 100 1017.0
20260507094548 52 0 0.0 0.0 0.00 0.00 0.00 100 1017.0
20260507094035 52 0 0.0 0.9 0.00 0.00 0.00 100 1017.0
20260507093538 52 0 0.0 0.9 0.00 0.00 0.00 100 1016.9
20260507093043 52 0 0.0 2.6 0.00 0.00 0.00 100 1016.9
20260507092538 52 0 0.0 2.6 0.00 0.00 0.00 100 1017.0
20260507092035 52 0 0.9 2.6 0.00 0.00 0.00 100 1016.8
20260507091544 52 0 0.0 1.7 0.00 0.00 0.00 100 1016.8
20260507091035 52 0 0.0 1.7 0.00 0.00 0.00 100 1016.8
20260507090535 53 66 0.0 1.7 0.00 0.00 0.00 100 1016.8
20260507090055 53 0 0.0 1.7 0.00 0.00 0.00 100 1016.8
20260507085534 53 0 0.0 1.7 0.00 0.00 0.00 100 1016.8
20260507085035 53 0 0.0 2.6 0.00 0.00 0.00 100 1016.8
20260507084549 53 0 0.0 3.5 0.00 0.00 0.00 100 1016.9
20260507084032 53 0 0.9 3.5 0.00 0.00 0.00 100 1016.8
20260507083532 53 0 0.0 1.7 0.00 0.00 0.00 100 1016.7
20260507083045 53 0 0.0 4.3 0.00 0.00 0.00 100 1016.7
20260507082532 53 30 0.9 4.3 0.00 0.00 0.00 100 1016.8
20260507082035 53 0 0.0 1.7 0.00 0.00 0.00 100 1016.8
20260507081543 53 0 0.0 1.7 0.00 0.00 0.00 100 1016.8
20260507081032 53 9 0.0 1.7 0.00 0.00 0.00 100 1016.7
20260507080536 53 0 0.0 2.6 0.00 0.00 0.00 100 1016.7
20260507080047 53 0 0.0 2.6 0.00 0.00 0.00 100 1016.7
20260507075534 52 0 0.0 2.6 0.00 0.00 0.00 100 1016.6
20260507075032 52 0 0.0 2.6 0.00 0.00 0.00 100 1016.6
20260507074538 52 47 0.0 2.6 0.00 0.00 0.00 100 1016.6
20260507074033 52 0 0.0 2.6 0.00 0.00 0.00 100 1016.6
20260507073536 52 37 0.9 2.6 0.00 0.00 0.00 100 1016.6
20260507073045 52 0 0.0 0.0 0.00 0.00 0.00 100 1016.6
20260507072533 51 0 0.0 0.0 0.00 0.00 0.00 100 1016.6
20260507072035 51 0 0.0 0.0 0.00 0.00 0.00 100 1016.5
20260507071545 50 0 0.0 0.9 0.00 0.00 0.00 100 1016.4
20260507071032 50 0 0.0 1.7 0.00 0.00 0.00 100 1016.5
20260507070532 50 0 0.0 1.7 0.00 0.00 0.00 100 1016.4
20260507070101 50 0 0.0 1.7 0.00 0.00 0.00 100 1016.5
20260507065533 50 0 0.0 0.9 0.00 0.00 0.00 100 1016.4
20260507065036 49 0 0.0 0.0 0.00 0.00 0.00 100 1016.4
20260507064549 49 0 0.0 0.0 0.00 0.00 0.00 100 1016.5
20260507064035 49 0 0.0 0.0 0.00 0.00 0.00 100 1016.4
20260507063533 49 0 0.0 0.0 0.00 0.00 0.00 100 1016.4
20260507063044 49 0 0.0 0.0 0.00 0.00 0.00 100 1016.4
20260507062533 48 0 0.0 0.0 0.00 0.00 0.00 100 1016.4
20260507062033 48 0 0.0 0.0 0.00 0.00 0.00 100 1016.3
20260507061545 48 0 0.0 0.0 0.00 0.00 0.00 100 1016.3
20260507061033 48 0 0.0 0.9 0.00 0.00 0.00 100 1016.3
20260507060532 48 0 0.0 0.9 0.00 0.00 0.00 100 1016.3
20260507060044 48 0 0.0 0.9 0.00 0.00 0.00 100 1016.3
20260507055535 48 0 0.0 2.6 0.00 0.00 0.00 100 1016.2
20260507055033 48 0 0.0 3.5 0.00 0.00 0.00 100 1016.2
20260507054605 48 0 0.0 3.5 0.00 0.00 0.00 100 1016.1
20260507054035 47 49 0.0 3.5 0.00 0.00 0.00 100 1016.1
20260507053532 47 0 0.0 0.9 0.00 0.00 0.00 100 1016.1
20260507053102 47 0 0.0 0.9 0.00 0.00 0.00 100 1016.0
20260507052533 47 0 0.0 0.9 0.00 0.00 0.00 100 1015.9
20260507052035 47 0 0.0 0.0 0.00 0.00 0.00 100 1015.9
20260507051543 47 0 0.0 0.0 0.00 0.00 0.00 100 1016.0
20260507051033 47 0 0.0 0.0 0.00 0.00 0.00 100 1016.0
20260507050535 47 0 0.0 0.0 0.00 0.00 0.00 100 1016.0
20260507050050 47 0 0.0 0.0 0.00 0.00 0.00 100 1015.9
20260507045533 47 0 0.0 0.0 0.00 0.00 0.00 100 1015.9
20260507045033 47 0 0.0 0.0 0.00 0.00 0.00 100 1015.9
20260507044552 47 0 0.0 0.0 0.00 0.00 0.00 100 1016.0
20260507044035 47 0 0.0 0.0 0.00 0.00 0.00 100 1015.8
20260507043535 47 0 0.0 0.0 0.00 0.00 0.00 100 1015.7
20260507043042 47 0 0.0 0.0 0.00 0.00 0.00 100 1015.8
20260507042536 47 0 0.0 0.0 0.00 0.00 0.00 100 1015.8
20260507042032 47 0 0.0 0.0 0.00 0.00 0.00 100 1015.8
20260507041555 47 0 0.0 0.0 0.00 0.00 0.00 100 1015.8
20260507041033 47 0 0.0 0.0 0.00 0.00 0.00 100 1015.8
20260507040532 47 0 0.0 0.0 0.00 0.00 0.00 100 1015.8
20260507040042 47 0 0.0 0.0 0.00 0.00 0.00 100 1015.8
20260507035532 47 0 0.0 0.0 0.00 0.00 0.00 100 1015.7
20260507035034 47 0 0.0 0.0 0.00 0.00 0.00 100 1015.7
20260507034544 47 0 0.0 0.0 0.00 0.00 0.00 100 1015.7
20260507034033 47 0 0.0 0.0 0.00 0.00 0.00 100 1015.6
20260507033534 47 0 0.0 0.0 0.00 0.00 0.00 100 1015.7
20260507033043 47 0 0.0 0.0 0.00 0.00 0.00 100 1015.6
20260507032535 47 0 0.0 0.0 0.00 0.00 0.00 100 1015.6
20260507032032 46 0 0.0 0.0 0.00 0.00 0.00 100 1015.6
20260507031543 46 0 0.0 0.0 0.00 0.00 0.00 100 1015.6
20260507031032 46 0 0.0 0.0 0.00 0.00 0.00 100 1015.6
20260507030534 46 0 0.0 0.0 0.00 0.00 0.00 100 1015.6
20260507030043 46 0 0.0 0.0 0.00 0.00 0.00 100 1015.7
20260507025532 46 0 0.0 0.0 0.00 0.00 0.00 100 1015.6
20260507025035 46 0 0.0 0.0 0.00 0.00 0.00 100 1015.5
20260507024541 46 0 0.0 0.0 0.00 0.00 0.00 100 1015.6
20260507024035 46 0 0.0 0.0 0.00 0.00 0.00 100 1015.6
20260507023535 46 0 0.0 0.0 0.00 0.00 0.00 100 1015.6
20260507023041 46 0 0.0 0.0 0.00 0.00 0.00 100 1015.5
20260507022532 46 0 0.0 0.0 0.00 0.00 0.00 100 1015.5
20260507022035 46 0 0.0 0.0 0.00 0.00 0.00 100 1015.5
20260507021541 47 0 0.0 0.0 0.00 0.00 0.00 100 1015.5
20260507021033 47 0 0.0 0.0 0.00 0.00 0.00 100 1015.5
20260507020535 47 0 0.0 0.0 0.00 0.00 0.00 100 1015.4
20260507020059 47 0 0.0 0.0 0.00 0.00 0.00 100 1015.4
20260507015535 47 0 0.0 0.0 0.00 0.00 0.00 100 1015.3
20260507015036 47 0 0.0 0.0 0.00 0.00 0.00 100 1015.4
20260507014616 47 0 0.0 0.0 0.00 0.00 0.00 100 1015.3
20260507014035 47 0 0.0 0.0 0.00 0.00 0.00 100 1015.3
20260507013532 47 0 0.0 0.0 0.00 0.00 0.00 100 1015.2
20260507013047 47 0 0.0 0.0 0.00 0.00 0.00 100 1015.3
20260507012533 47 0 0.0 0.0 0.00 0.00 0.00 100 1015.2
20260507012033 48 0 0.0 0.0 0.00 0.00 0.00 100 1015.2
20260507011554 48 0 0.0 0.0 0.00 0.00 0.00 100 1015.2
20260507011034 48 0 0.0 0.0 0.00 0.00 0.00 100 1015.2
20260507010531 48 0 0.0 0.0 0.00 0.00 0.00 100 1015.2
20260507010046 48 0 0.0 0.0 0.00 0.00 0.00 100 1015.2
20260507005536 48 0 0.0 0.0 0.00 0.00 0.00 100 1015.2
20260507005032 48 0 0.0 0.0 0.00 0.00 0.00 100 1015.3
20260507004544 48 0 0.0 0.0 0.00 0.00 0.00 100 1015.2
20260507004035 48 0 0.0 0.0 0.00 0.00 0.00 100 1015.2
20260507003531 49 0 0.0 0.0 0.00 0.00 0.00 100 1015.2
20260507003043 49 0 0.0 0.0 0.00 0.00 0.00 100 1015.3
20260507002533 49 0 0.0 0.0 0.00 0.00 0.00 100 1015.3
20260507002033 49 0 0.0 0.0 0.00 0.00 0.00 100 1015.3
20260507001558 49 0 0.0 0.0 0.00 0.00 0.00 100 1015.4
20260507001038 49 0 0.0 0.0 0.00 0.00 0.00 100 1015.3
20260507000533 49 0 0.0 0.9 0.00 0.00 0.00 100 1015.4
20260507000054 49 0 0.0 2.6 0.00 0.00 0.00 100 1015.4
20260506235535 49 0 0.0 2.6 0.00 0.00 0.00 100 1015.5
20260506235032 49 0 0.0 2.6 0.00 0.00 0.00 100 1015.3
20260506234554 49 0 0.0 2.6 0.00 0.00 0.00 100 1015.3
20260506234031 49 32 0.0 1.7 0.00 0.00 0.00 100 1015.3
20260506233532 49 0 0.0 2.6 0.00 0.00 0.00 100 1015.2
20260506233048 49 0 0.0 2.6 0.00 0.00 0.00 100 1015.3
20260506232534 49 0 0.9 3.5 0.00 0.00 0.00 100 1015.2
20260506232035 49 22 0.9 3.5 0.00 0.00 0.00 100 1015.3
20260506231544 49 27 0.9 3.5 0.00 0.00 0.00 100 1015.1
20260506231034 49 51 0.0 0.9 0.00 0.00 0.00 100 1015.2
20260506230531 49 0 0.0 0.0 0.00 0.00 0.00 100 1015.1
20260506230052 49 0 0.0 0.0 0.00 0.00 0.00 100 1015.2
20260506225536 49 0 0.0 0.0 0.00 0.00 0.00 100 1015.2